Weather History for Fort Knox, KY

Change the Weather History Date:

Tuesday, August 26, 2014

  Actual Average Record
Temperature  
Mean Temperature 78 °F -  
Max Temperature 88 °F 83 °F 91 °F (2001)
Min Temperature 69 °F 63 °F 59 °F (1999)
Cooling Degree Days 14    
Growing Degree Days 28 (Base 50)    
Moisture  
Dew Point 73 °F    
Average Humidity 84    
Maximum Humidity 100    
Minimum Humidity 58    
Precipitation  
Precipitation 0.00 in - - ()
Sea Level Pressure  
Sea Level Pressure 30.08 in    
Wind  
Wind Speed 2 mph (ENE)    
Max Wind Speed 8 mph    
Max Gust Speed -    
Visibility 9 miles    
Events      
Averages and records for this station are not official NWS values.
T = Trace of Precipitation, MM = Missing Value Source: NWS Daily Summary

Daily Weather History Graph

Daily Weather History Graph

Search for Another Location

Airport:

Trip Planner

Search our weather history database for the weather conditions in past years. The results will help you decide how hot, cold, wet, or windy it might be!

Date:

Astronomy

Aug. 26, 2014 Rise Set
Actual Time 7:08 AM EDT 8:21 PM EDT
Civil Twilight 6:41 AM EDT 8:49 PM EDT
Nautical Twilight 6:08 AM EDT 9:21 PM EDT
Astronomical Twilight 5:34 AM EDT 9:55 PM EDT
Moon 8:06 AM EDT (8/26) 8:45 PM EDT (8/26)
Length of Visible Light 14h 07m
Length of Day
13h 13m
New Moon, 1% of the Moon is Illuminated
Aug 26
New Moon
Sep 2
First Quarter
Sep 8
Full
Sep 15
Last Quarter
Sep 24
New

Hourly Weather History & Observations

Time (EDT) Temp. Heat Index Dew Point Humidity Pressure Visibility Wind Dir Wind Speed Gust Speed Precip Events Conditions
12:07 AM 75.2 °F - 75.2 °F 100% 30.06 in 10.0 mi Calm Calm - N/A   Clear
12:31 AM 75.2 °F - 75.2 °F 100% 30.07 in 10.0 mi Calm Calm - N/A   Clear
12:32 AM 75.2 °F - 75.2 °F 100% 30.06 in 10.0 mi Calm Calm - N/A   Clear
12:34 AM 75.2 °F - 75.2 °F 100% 30.07 in 10.0 mi Calm Calm - N/A   Clear
12:41 AM 73.4 °F - 73.4 °F 100% 30.06 in 8.0 mi Calm Calm - N/A   Clear
12:42 AM 73.4 °F - 73.4 °F 100% 30.07 in 8.0 mi Calm Calm - N/A   Clear
12:43 AM 73.4 °F - 73.4 °F 100% 30.06 in 8.0 mi Calm Calm - N/A   Clear
12:58 AM 73.9 °F - 73.9 °F 100% 30.05 in 9.0 mi Calm Calm - N/A   Clear
1:07 AM 73.4 °F - 73.4 °F 100% 30.07 in 8.0 mi Calm Calm - N/A   Clear
1:10 AM 73.4 °F - 73.4 °F 100% 30.06 in 7.0 mi Calm Calm - N/A   Clear
1:11 AM 73.4 °F - 73.4 °F 100% 30.07 in 7.0 mi Calm Calm - N/A   Clear
1:58 AM 72.7 °F - 72.7 °F 100% 30.06 in 5.0 mi NNW 3.5 mph - N/A   Clear
2:02 AM 73.4 °F - 73.4 °F 100% 30.06 in 7.0 mi Calm Calm - N/A   Clear
2:27 AM 73.4 °F - 73.4 °F 100% 30.05 in 9.0 mi East 1.2 mph - N/A   Clear
2:58 AM 72.3 °F - 72.3 °F 100% 30.04 in 5.0 mi ESE 1.2 mph - N/A   Clear
3:05 AM 73.4 °F - 73.4 °F 100% 30.04 in 9.0 mi East 3.5 mph - N/A   Clear
3:13 AM 73.4 °F - 73.4 °F 100% 30.05 in 10.0 mi ESE 2.3 mph - N/A   Clear
3:14 AM 73.4 °F - 73.4 °F 100% 30.04 in 10.0 mi ESE 2.3 mph - N/A   Clear
3:58 AM 73.8 °F - 73.8 °F 100% 30.03 in 10.0 mi East 4.6 mph - N/A   Clear
4:27 AM 73.4 °F - 73.4 °F 100% 30.05 in 10.0 mi East 2.3 mph - N/A   Clear
4:29 AM 73.4 °F - 73.4 °F 100% 30.04 in 10.0 mi East 2.3 mph - N/A   Clear
4:30 AM 73.4 °F - 73.4 °F 100% 30.05 in 10.0 mi East 2.3 mph - N/A   Clear
4:31 AM 73.4 °F - 73.4 °F 100% 30.04 in 10.0 mi East 2.3 mph - N/A   Clear
4:32 AM 73.4 °F - 73.4 °F 100% 30.05 in 10.0 mi East 2.3 mph - N/A   Clear
4:34 AM 73.4 °F - 73.4 °F 100% 30.04 in 10.0 mi East 2.3 mph - N/A   Clear
4:35 AM 73.4 °F - 73.4 °F 100% 30.05 in 10.0 mi East 2.3 mph - N/A   Clear
4:36 AM 73.4 °F - 73.4 °F 100% 30.04 in 10.0 mi East 3.5 mph - N/A   Clear
4:37 AM 73.4 °F - 73.4 °F 100% 30.05 in 10.0 mi East 2.3 mph - N/A   Clear
4:57 AM 73.4 °F - 73.4 °F 100% 30.06 in 10.0 mi NE 1.2 mph - N/A   Clear
4:58 AM 72.9 °F - 72.9 °F 100% 30.05 in 10.0 mi NE 1.2 mph - N/A   Clear
5:44 AM 71.6 °F - 71.6 °F 100% 30.07 in 7.0 mi North 3.5 mph - N/A   Clear
5:46 AM 71.6 °F - 71.6 °F 100% 30.06 in 7.0 mi North 3.5 mph - N/A   Clear
5:47 AM 71.6 °F - 71.6 °F 100% 30.07 in 7.0 mi North 3.5 mph - N/A   Clear
5:49 AM 71.6 °F - 71.6 °F 100% 30.06 in 7.0 mi North 2.3 mph - N/A   Clear
5:50 AM 71.6 °F - 71.6 °F 100% 30.07 in 7.0 mi North 2.3 mph - N/A   Clear
5:58 AM 71.1 °F - 71.1 °F 100% 30.06 in 7.0 mi NNE 2.3 mph - N/A   Clear
6:51 AM 71.6 °F - 71.6 °F 100% 30.08 in 9.0 mi Calm Calm - N/A   Clear
6:58 AM 70.9 °F - 70.9 °F 100% 30.07 in 6.0 mi Calm Calm - N/A   Clear
7:03 AM 69.8 °F - 69.8 °F 100% 30.08 in 2.5 mi Calm Calm - N/A   Clear
7:05 AM 69.8 °F - 69.8 °F 100% 30.09 in 1.2 mi Calm Calm - N/A   Clear
7:15 AM 69.8 °F - 69.8 °F 100% 30.09 in 2.5 mi East 2.3 mph - N/A   Clear
7:20 AM 71.6 °F - 71.6 °F 100% 30.09 in 8.0 mi East 4.6 mph - N/A   Clear
7:22 AM 71.6 °F - 71.6 °F 100% 30.10 in 9.0 mi East 4.6 mph - N/A   Clear
7:58 AM 72.7 °F - 72.7 °F 100% 30.09 in 10.0 mi ENE 3.5 mph - N/A   Clear
7:59 AM 73.4 °F - 73.4 °F 100% 30.11 in 10.0 mi East 4.6 mph - N/A   Clear
8:22 AM 73.4 °F - 73.4 °F 100% 30.12 in 10.0 mi East 3.5 mph - N/A   Clear
8:58 AM 75.0 °F - 75.0 °F 100% 30.11 in 10.0 mi ESE 3.5 mph - N/A   Clear
9:06 AM 75.2 °F - 75.2 °F 100% 30.13 in 10.0 mi East 2.3 mph - N/A   Clear
9:47 AM 77.0 °F - 71.6 °F 83% 30.14 in 10.0 mi East 4.6 mph - N/A   Clear
9:56 AM 78.8 °F - 71.6 °F 78% 30.13 in 10.0 mi East 3.5 mph - N/A   Clear
9:58 AM 78.3 °F - 71.2 °F 79% 30.12 in 10.0 mi Variable 3.5 mph - 0.00 in   Clear
9:59 AM 78.8 °F - 71.6 °F 78% 30.14 in 10.0 mi SSE 3.5 mph - N/A   Clear
10:58 AM 81.9 °F 85.8 °F 70.5 °F 68% 30.13 in 10.0 mi Variable 1.2 mph - 0.00 in   Clear
11:08 AM 82.4 °F 87.2 °F 71.6 °F 70% 30.15 in 10.0 mi NE 3.5 mph - N/A   Clear
11:18 AM 82.4 °F 86.3 °F 69.8 °F 66% 30.14 in 10.0 mi Calm Calm - N/A   Clear
11:19 AM 82.4 °F 86.3 °F 69.8 °F 66% 30.15 in 10.0 mi Calm Calm - N/A   Clear
11:31 AM 84.2 °F 89.6 °F 71.6 °F 66% 30.14 in 10.0 mi NNW 2.3 mph - N/A   Clear
11:50 AM 84.2 °F 89.6 °F 71.6 °F 66% 30.13 in 10.0 mi Calm Calm - N/A   Clear
11:54 AM 84.2 °F 89.6 °F 71.6 °F 66% 30.14 in 10.0 mi Variable 2.3 mph - N/A   Clear
11:58 AM 84.2 °F 89.3 °F 71.2 °F 65% 30.13 in 10.0 mi Variable 3.5 mph - N/A   Clear
12:07 PM 84.2 °F 89.6 °F 71.6 °F 66% 30.13 in 10.0 mi NW 2.3 mph - N/A   Clear
12:18 PM 86.0 °F 91.8 °F 71.6 °F 62% 30.14 in 10.0 mi NW 4.6 mph - N/A   Scattered Clouds
12:20 PM 86.0 °F 91.8 °F 71.6 °F 62% 30.13 in 10.0 mi Variable 2.3 mph - N/A   Scattered Clouds
12:31 PM 86.0 °F 90.4 °F 69.8 °F 58% 30.14 in 10.0 mi NNW 5.8 mph - N/A   Scattered Clouds
12:32 PM 86.0 °F 90.4 °F 69.8 °F 58% 30.13 in 10.0 mi NNW 5.8 mph - N/A   Scattered Clouds
12:58 PM 86.4 °F 91.8 °F 71.1 °F 60% 30.12 in 10.0 mi Variable 3.5 mph - N/A   Partly Cloudy
1:05 PM 86.0 °F 91.8 °F 71.6 °F 62% 30.12 in 10.0 mi Variable 4.6 mph - N/A   Scattered Clouds
1:41 PM 87.8 °F 93.8 °F 71.6 °F 58% 30.11 in 10.0 mi Variable 2.3 mph - N/A   Partly Cloudy
1:42 PM 87.8 °F 93.8 °F 71.6 °F 58% 30.12 in 10.0 mi ENE 2.3 mph - N/A   Partly Cloudy
1:44 PM 87.8 °F 93.8 °F 71.6 °F 58% 30.11 in 10.0 mi Variable 2.3 mph - N/A   Scattered Clouds
1:58 PM 87.1 °F 93.6 °F 72.3 °F 61% 30.10 in 10.0 mi North 5.8 mph - N/A   Mostly Cloudy
2:47 PM 87.8 °F 95.6 °F 73.4 °F 62% 30.10 in 10.0 mi Variable 5.8 mph - N/A   Clear
2:50 PM 87.8 °F 93.8 °F 71.6 °F 58% 30.11 in 10.0 mi NNE 5.8 mph - N/A   Clear
2:51 PM 87.8 °F 93.8 °F 71.6 °F 58% 30.10 in 10.0 mi NNE 5.8 mph - N/A   Clear
2:58 PM 88.3 °F 95.0 °F 71.8 °F 58% 30.09 in 10.0 mi ENE 5.8 mph - N/A   Clear
3:13 PM 87.8 °F 95.6 °F 73.4 °F 62% 30.09 in 10.0 mi NE 6.9 mph - N/A   Partly Cloudy
3:14 PM 87.8 °F 95.6 °F 73.4 °F 62% 30.10 in 10.0 mi NE 8.1 mph - N/A   Partly Cloudy
3:15 PM 87.8 °F 95.6 °F 73.4 °F 62% 30.09 in 10.0 mi NE 6.9 mph - N/A   Partly Cloudy
3:32 PM 87.8 °F 93.8 °F 71.6 °F 58% 30.08 in 10.0 mi Variable 3.5 mph - N/A   Clear
3:46 PM 87.8 °F 95.6 °F 73.4 °F 62% 30.08 in 10.0 mi ENE 5.8 mph - N/A   Light Drizzle
3:51 PM 87.8 °F 93.8 °F 71.6 °F 58% 30.07 in 10.0 mi Variable 2.3 mph - N/A   Partly Cloudy
3:58 PM 88.0 °F 94.2 °F 71.6 °F 58% 30.06 in 10.0 mi East 3.5 mph - 0.00 in   Partly Cloudy
4:58 PM 87.8 °F 95.6 °F 73.4 °F 62% 30.06 in 10.0 mi NE 6.9 mph - N/A   Partly Cloudy
5:49 PM 87.8 °F 95.6 °F 73.4 °F 62% 30.06 in 10.0 mi East 5.8 mph - N/A   Clear
5:58 PM 87.8 °F 96.1 °F 73.6 °F 63% 30.05 in 10.0 mi NE 5.8 mph - N/A   Clear
5:59 PM 87.8 °F 95.6 °F 73.4 °F 62% 30.07 in 10.0 mi ENE 4.6 mph - N/A   Clear
6:30 PM 87.8 °F 95.6 °F 73.4 °F 62% 30.06 in 10.0 mi East 4.6 mph - N/A   Clear
6:58 PM 86.0 °F 94.2 °F 74.5 °F 68% 30.05 in 10.0 mi ENE 2.3 mph - N/A   Clear
7:30 PM 86.0 °F 93.4 °F 73.4 °F 66% 30.07 in 10.0 mi East 4.6 mph - N/A   Clear
7:34 PM 86.0 °F 93.4 °F 73.4 °F 66% 30.06 in 10.0 mi East 4.6 mph - N/A   Clear
7:51 PM 84.2 °F 90.9 °F 73.4 °F 70% 30.07 in 10.0 mi East 4.6 mph - N/A   Clear
7:58 PM 84.9 °F 91.8 °F 73.2 °F 68% 30.06 in 10.0 mi East 3.5 mph - N/A   Clear
8:28 PM 80.6 °F 85.4 °F 73.4 °F 79% 30.08 in 10.0 mi ENE 3.5 mph - N/A   Clear
8:30 PM 80.6 °F 85.4 °F 73.4 °F 79% 30.07 in 10.0 mi ENE 4.6 mph - N/A   Clear
8:32 PM 82.4 °F 88.2 °F 73.4 °F 74% 30.08 in 10.0 mi ENE 4.6 mph - N/A   Clear
8:36 PM 82.4 °F 88.2 °F 73.4 °F 74% 30.07 in 10.0 mi ENE 4.6 mph - N/A   Clear
8:37 PM 82.4 °F 88.2 °F 73.4 °F 74% 30.08 in 10.0 mi ENE 3.5 mph - N/A   Clear
8:44 PM 82.4 °F 88.2 °F 73.4 °F 74% 30.07 in 10.0 mi NE 1.2 mph - N/A   Clear
8:49 PM 80.6 °F 86.2 °F 75.2 °F 84% 30.08 in 10.0 mi ENE 2.3 mph - N/A   Clear
8:58 PM 81.7 °F 86.9 °F 73.2 °F 75% 30.07 in 10.0 mi ENE 1.2 mph - 0.00 in   Clear
9:33 PM 77.0 °F - 73.4 °F 89% 30.07 in 10.0 mi Calm Calm - N/A   Clear
9:39 PM 77.0 °F - 73.4 °F 89% 30.08 in 10.0 mi Calm Calm - N/A   Clear
9:42 PM 77.0 °F - 73.4 °F 89% 30.07 in 10.0 mi Calm Calm - N/A   Clear
9:58 PM 77.2 °F - 74.3 °F 91% 30.06 in 10.0 mi SSE 2.3 mph - 0.00 in   Clear
10:18 PM 77.0 °F - 73.4 °F 89% 30.08 in 10.0 mi NNE 1.2 mph - N/A   Clear
10:33 PM 75.2 °F - 75.2 °F 100% 30.09 in 10.0 mi North 4.6 mph - N/A   Clear
10:48 PM 77.0 °F - 75.2 °F 94% 30.08 in 10.0 mi NNE 1.2 mph - N/A   Clear
10:56 PM 77.0 °F - 75.2 °F 94% 30.09 in 10.0 mi North 3.5 mph - N/A   Clear
10:58 PM 76.6 °F - 75.9 °F 98% 30.08 in 10.0 mi North 3.5 mph - 0.00 in   Clear
11:18 PM 75.2 °F - 75.2 °F 100% 30.08 in 10.0 mi Calm Calm - N/A   Clear
11:19 PM 75.2 °F - 75.2 °F 100% 30.09 in 10.0 mi Calm Calm - N/A   Clear
11:20 PM 75.2 °F - 75.2 °F 100% 30.08 in 10.0 mi Calm Calm - N/A   Clear
11:58 PM 74.7 °F - 74.7 °F 100% 30.07 in 10.0 mi Calm Calm - N/A   Clear